Wetterdaten: Montag, 19.01.2015
Datum Zeit Temp. A. Feuchte A. Luftdruck Regen Wind Richtung Richtung Sonnenschein ET UV Solar Taupunkt Windchill Windben Empfang
19.01.2015 00:00 1,3 C 81 % 1013,8 hPa 0,0 l/m 0,0 km/h (0 Bft) S 174 0 min 0,000 mm 0,0 UV-I 0 W/m -1,6 C 1,3 C 0,0 km/h (0 Bft) 0,00 %
19.01.2015 00:15 1,3 C 81 % 1013,8 hPa 0,0 l/m 0,0 km/h (0 Bft) O 91 0 min 0,000 mm 0,0 UV-I 0 W/m -1,6 C 1,3 C 0,0 km/h (0 Bft) 0,00 %
19.01.2015 00:30 1,3 C 80 % 1013,6 hPa 0,0 l/m 1,8 km/h (1 Bft) O 95 0 min 0,000 mm 0,0 UV-I 0 W/m -1,8 C 1,3 C 4,0 km/h (1 Bft) 0,00 %
19.01.2015 00:45 1,4 C 80 % 1013,6 hPa 0,0 l/m 2,9 km/h (1 Bft) O 93 0 min 0,000 mm 0,0 UV-I 0 W/m -1,7 C 1,4 C 4,0 km/h (1 Bft) 0,00 %
19.01.2015 01:00 1,4 C 80 % 1013,6 hPa 0,0 l/m 3,2 km/h (1 Bft) SO 125 0 min 0,000 mm 0,0 UV-I 0 W/m -1,7 C 1,4 C 4,0 km/h (1 Bft) 0,00 %
19.01.2015 01:15 1,3 C 80 % 1013,8 hPa 0,0 l/m 0,0 km/h (0 Bft) O-SO 119 0 min 0,000 mm 0,0 UV-I 0 W/m -1,8 C 1,3 C 0,0 km/h (0 Bft) 0,00 %
19.01.2015 01:30 1,3 C 81 % 1013,7 hPa 0,0 l/m 1,8 km/h (1 Bft) O-NO 77 0 min 0,000 mm 0,0 UV-I 0 W/m -1,6 C 1,3 C 4,0 km/h (1 Bft) 0,00 %
19.01.2015 01:45 1,2 C 81 % 1013,6 hPa 0,0 l/m 0,7 km/h (0 Bft) O-NO 77 0 min 0,000 mm 0,0 UV-I 0 W/m -1,7 C 1,2 C 4,0 km/h (1 Bft) 0,00 %
19.01.2015 02:00 1,2 C 81 % 1013,4 hPa 0,0 l/m 0,4 km/h (0 Bft) O-SO 121 0 min 0,000 mm 0,0 UV-I 0 W/m -1,7 C 1,2 C 4,0 km/h (1 Bft) 0,00 %
19.01.2015 02:15 1,2 C 81 % 1013,4 hPa 0,0 l/m 0,7 km/h (0 Bft) S 175 0 min 0,000 mm 0,0 UV-I 0 W/m -1,7 C 1,2 C 4,0 km/h (1 Bft) 0,00 %
19.01.2015 02:30 1,2 C 81 % 1013,2 hPa 0,0 l/m 0,0 km/h (0 Bft) S 186 0 min 0,000 mm 0,0 UV-I 0 W/m -1,7 C 1,2 C 0,0 km/h (0 Bft) 0,00 %
19.01.2015 02:45 1,3 C 81 % 1013,2 hPa 0,0 l/m 4,3 km/h (1 Bft) SO 128 0 min 0,000 mm 0,0 UV-I 0 W/m -1,6 C 1,3 C 7,9 km/h (2 Bft) 0,00 %
19.01.2015 03:00 1,3 C 80 % 1013,0 hPa 0,0 l/m 0,0 km/h (0 Bft) W-SW 255 0 min 0,000 mm 0,0 UV-I 0 W/m -1,8 C 1,3 C 0,0 km/h (0 Bft) 0,00 %
19.01.2015 03:15 1,3 C 80 % 1012,9 hPa 0,0 l/m 2,9 km/h (1 Bft) O-SO 110 0 min 0,000 mm 0,0 UV-I 0 W/m -1,8 C 1,3 C 4,0 km/h (1 Bft) 0,00 %
19.01.2015 03:30 1,3 C 80 % 1012,6 hPa 0,0 l/m 4,3 km/h (1 Bft) O-SO 110 0 min 0,000 mm 0,0 UV-I 0 W/m -1,8 C 1,3 C 7,9 km/h (2 Bft) 0,00 %
19.01.2015 03:45 1,3 C 80 % 1012,8 hPa 0,0 l/m 4,0 km/h (1 Bft) O 101 0 min 0,000 mm 0,0 UV-I 0 W/m -1,8 C 1,3 C 7,9 km/h (2 Bft) 0,00 %
19.01.2015 04:00 1,2 C 79 % 1012,8 hPa 0,0 l/m 2,9 km/h (1 Bft) O-SO 123 0 min 0,000 mm 0,0 UV-I 0 W/m -2,0 C 1,2 C 7,9 km/h (2 Bft) 0,00 %
19.01.2015 04:15 1,1 C 79 % 1012,8 hPa 0,0 l/m 8,3 km/h (2 Bft) O-SO 102 0 min 0,000 mm 0,0 UV-I 0 W/m -2,1 C -0,8 C 11,9 km/h (2 Bft) 0,00 %
19.01.2015 04:30 1,1 C 79 % 1012,7 hPa 0,0 l/m 2,9 km/h (1 Bft) O-SO 115 0 min 0,000 mm 0,0 UV-I 0 W/m -2,1 C 1,1 C 7,9 km/h (2 Bft) 0,00 %
19.01.2015 04:45 1,0 C 79 % 1012,5 hPa 0,0 l/m 6,5 km/h (2 Bft) O-SO 107 0 min 0,000 mm 0,0 UV-I 0 W/m -2,2 C 0,9 C 7,9 km/h (2 Bft) 0,00 %
19.01.2015 05:00 0,9 C 79 % 1012,6 hPa 0,0 l/m 1,8 km/h (1 Bft) SO 131 0 min 0,000 mm 0,0 UV-I 0 W/m -2,3 C 0,9 C 4,0 km/h (1 Bft) 0,00 %
19.01.2015 05:15 0,8 C 79 % 1012,4 hPa 0,0 l/m 0,0 km/h (0 Bft) S 174 0 min 0,000 mm 0,0 UV-I 0 W/m -2,4 C 0,8 C 0,0 km/h (0 Bft) 0,00 %
19.01.2015 05:30 0,8 C 80 % 1012,6 hPa 0,0 l/m 0,4 km/h (0 Bft) S-SO 160 0 min 0,000 mm 0,0 UV-I 0 W/m -2,2 C 0,8 C 4,0 km/h (1 Bft) 0,00 %
19.01.2015 05:45 0,8 C 80 % 1012,5 hPa 0,0 l/m 0,0 km/h (0 Bft) S 175 0 min 0,000 mm 0,0 UV-I 0 W/m -2,2 C 0,8 C 0,0 km/h (0 Bft) 0,00 %
19.01.2015 06:00 0,8 C 80 % 1012,6 hPa 0,0 l/m 0,0 km/h (0 Bft) S 188 0 min 0,000 mm 0,0 UV-I 0 W/m -2,2 C 0,8 C 0,0 km/h (0 Bft) 0,00 %
19.01.2015 06:15 0,8 C 80 % 1012,5 hPa 0,0 l/m 0,4 km/h (0 Bft) SO 140 0 min 0,000 mm 0,0 UV-I 0 W/m -2,2 C 0,8 C 4,0 km/h (1 Bft) 0,00 %
19.01.2015 06:30 0,7 C 80 % 1012,6 hPa 0,0 l/m 0,0 km/h (0 Bft) S-SW 201 0 min 0,000 mm 0,0 UV-I 0 W/m -2,3 C 0,7 C 0,0 km/h (0 Bft) 0,00 %
19.01.2015 06:45 0,7 C 80 % 1012,4 hPa 0,0 l/m 0,0 km/h (0 Bft) S-SW 205 0 min 0,000 mm 0,0 UV-I 0 W/m -2,3 C 0,7 C 0,0 km/h (0 Bft) 0,00 %
19.01.2015 07:00 0,7 C 80 % 1012,3 hPa 0,0 l/m 0,4 km/h (0 Bft) O-SO 113 0 min 0,000 mm 0,0 UV-I 0 W/m -2,3 C 0,7 C 4,0 km/h (1 Bft) 0,00 %
19.01.2015 07:15 0,7 C 80 % 1012,4 hPa 0,0 l/m 0,0 km/h (0 Bft) S 174 0 min 0,000 mm 0,0 UV-I 0 W/m -2,3 C 0,7 C 0,0 km/h (0 Bft) 0,00 %
19.01.2015 07:30 0,7 C 80 % 1012,5 hPa 0,0 l/m 0,0 km/h (0 Bft) S-SW 197 0 min 0,000 mm 0,0 UV-I 0 W/m -2,3 C 0,7 C 0,0 km/h (0 Bft) 0,00 %
19.01.2015 07:45 0,7 C 80 % 1012,4 hPa 0,0 l/m 0,4 km/h (0 Bft) SO 139 0 min 0,000 mm 0,0 UV-I 0 W/m -2,3 C 0,7 C 4,0 km/h (1 Bft) 0,00 %
19.01.2015 08:00 0,7 C 80 % 1012,6 hPa 0,0 l/m 0,0 km/h (0 Bft) SW 221 0 min 0,000 mm 0,0 UV-I 0 W/m -2,3 C 0,7 C 0,0 km/h (0 Bft) 0,00 %
19.01.2015 08:15 0,7 C 80 % 1012,9 hPa 0,0 l/m 0,0 km/h (0 Bft) W-SW 256 0 min 0,000 mm 0,0 UV-I 0 W/m -2,3 C 0,7 C 0,0 km/h (0 Bft) 0,00 %
19.01.2015 08:30 0,7 C 80 % 1012,9 hPa 0,0 l/m 0,0 km/h (0 Bft) SW 217 0 min 0,000 mm 0,0 UV-I 4 W/m -2,3 C 0,7 C 0,0 km/h (0 Bft) 0,00 %
19.01.2015 08:45 0,8 C 80 % 1012,8 hPa 0,0 l/m 1,4 km/h (1 Bft) O-SO 112 0 min 0,000 mm 0,0 UV-I 7 W/m -2,2 C 0,8 C 4,0 km/h (1 Bft) 0,00 %
19.01.2015 09:00 0,8 C 80 % 1012,7 hPa 0,0 l/m 1,4 km/h (1 Bft) O 85 0 min 0,000 mm 0,0 UV-I 11 W/m -2,2 C 0,8 C 4,0 km/h (1 Bft) 0,00 %
19.01.2015 09:15 0,8 C 79 % 1012,9 hPa 0,0 l/m 0,0 km/h (0 Bft) S 184 0 min 0,000 mm 0,0 UV-I 27 W/m -2,4 C 0,8 C 0,0 km/h (0 Bft) 0,00 %
19.01.2015 09:30 0,9 C 79 % 1013,1 hPa 0,0 l/m 0,0 km/h (0 Bft) O 99 0 min 0,000 mm 0,0 UV-I 30 W/m -2,3 C 0,9 C 0,0 km/h (0 Bft) 0,00 %
19.01.2015 09:45 0,9 C 79 % 1012,9 hPa 0,0 l/m 0,0 km/h (0 Bft) S 175 0 min 0,000 mm 0,0 UV-I 34 W/m -2,3 C 0,9 C 0,0 km/h (0 Bft) 0,00 %
19.01.2015 10:00 0,9 C 79 % 1013,2 hPa 0,0 l/m 0,0 km/h (0 Bft) O-SO 115 0 min 0,000 mm 0,0 UV-I 33 W/m -2,3 C 0,9 C 0,0 km/h (0 Bft) 0,00 %
19.01.2015 10:15 0,9 C 79 % 1013,1 hPa 0,0 l/m 1,8 km/h (1 Bft) O-SO 113 0 min 0,000 mm 1,0 UV-I 32 W/m -2,3 C 0,9 C 4,0 km/h (1 Bft) 0,00 %
19.01.2015 10:30 1,0 C 79 % 1013,1 hPa 0,0 l/m 0,0 km/h (0 Bft) S 172 0 min 0,000 mm 1,0 UV-I 47 W/m -2,2 C 1,0 C 0,0 km/h (0 Bft) 0,00 %
19.01.2015 10:45 1,2 C 78 % 1013,1 hPa 0,0 l/m 0,0 km/h (0 Bft) S 172 0 min 0,000 mm 1,0 UV-I 58 W/m -2,2 C 1,2 C 0,0 km/h (0 Bft) 0,00 %
19.01.2015 11:00 1,5 C 76 % 1012,8 hPa 0,0 l/m 0,0 km/h (0 Bft) S 172 0 min 0,000 mm 1,0 UV-I 90 W/m -2,3 C 1,5 C 0,0 km/h (0 Bft) 0,00 %
19.01.2015 11:15 1,7 C 75 % 1012,7 hPa 0,0 l/m 0,0 km/h (0 Bft) SO 132 0 min 0,000 mm 1,0 UV-I 121 W/m -2,2 C 1,7 C 0,0 km/h (0 Bft) 0,00 %
19.01.2015 11:30 1,6 C 75 % 1012,6 hPa 0,0 l/m 1,8 km/h (1 Bft) O-SO 117 0 min 0,000 mm 1,0 UV-I 189 W/m -2,3 C 1,6 C 4,0 km/h (1 Bft) 0,00 %
19.01.2015 11:45 2,0 C 74 % 1012,2 hPa 0,0 l/m 0,7 km/h (0 Bft) O-NO 75 0 min 0,000 mm 1,0 UV-I 199 W/m -2,1 C 2,0 C 4,0 km/h (1 Bft) 0,00 %
19.01.2015 12:00 1,8 C 74 % 1012,2 hPa 0,0 l/m 4,7 km/h (1 Bft) O 84 0 min 0,000 mm 2,0 UV-I 205 W/m -2,3 C 1,8 C 7,9 km/h (2 Bft) 0,00 %
19.01.2015 12:15 2,1 C 72 % 1012,0 hPa 0,0 l/m 0,7 km/h (0 Bft) O-SO 123 15 min 0,000 mm 2,0 UV-I 210 W/m -2,4 C 2,1 C 4,0 km/h (1 Bft) 0,00 %
19.01.2015 12:30 2,3 C 72 % 1012,0 hPa 0,0 l/m 4,0 km/h (1 Bft) O 101 15 min 0,000 mm 1,0 UV-I 215 W/m -2,2 C 2,3 C 7,9 km/h (2 Bft) 0,00 %
19.01.2015 12:45 2,3 C 75 % 1011,7 hPa 0,0 l/m 1,8 km/h (1 Bft) O 93 15 min 0,000 mm 1,0 UV-I 210 W/m -1,7 C 2,3 C 4,0 km/h (1 Bft) 0,00 %
19.01.2015 13:00 2,2 C 70 % 1011,6 hPa 0,0 l/m 1,8 km/h (1 Bft) O-SO 120 15 min 0,000 mm 1,0 UV-I 210 W/m -2,7 C 2,2 C 4,0 km/h (1 Bft) 0,00 %
19.01.2015 13:15 2,1 C 70 % 1011,6 hPa 0,0 l/m 0,7 km/h (0 Bft) O-SO 116 15 min 0,000 mm 1,0 UV-I 200 W/m -2,8 C 2,1 C 4,0 km/h (1 Bft) 0,00 %
19.01.2015 13:30 2,3 C 69 % 1011,2 hPa 0,0 l/m 0,7 km/h (0 Bft) S 175 15 min 0,000 mm 1,0 UV-I 189 W/m -2,8 C 2,3 C 4,0 km/h (1 Bft) 0,00 %
19.01.2015 13:45 2,3 C 73 % 1011,2 hPa 0,0 l/m 1,8 km/h (1 Bft) S-SO 152 0 min 0,000 mm 1,0 UV-I 114 W/m -2,0 C 2,3 C 7,9 km/h (2 Bft) 0,00 %
19.01.2015 14:00 2,3 C 68 % 1011,0 hPa 0,0 l/m 1,4 km/h (1 Bft) S 179 0 min 0,000 mm 1,0 UV-I 109 W/m -3,0 C 2,3 C 4,0 km/h (1 Bft) 0,00 %
19.01.2015 14:15 2,1 C 68 % 1010,8 hPa 0,0 l/m 4,0 km/h (1 Bft) O-SO 115 0 min 0,000 mm 1,0 UV-I 91 W/m -3,2 C 2,1 C 4,0 km/h (1 Bft) 0,00 %
19.01.2015 14:30 2,3 C 67 % 1010,8 hPa 0,0 l/m 5,8 km/h (2 Bft) O-NO 60 0 min 0,000 mm 1,0 UV-I 94 W/m -3,2 C 2,3 C 11,9 km/h (2 Bft) 0,00 %
19.01.2015 14:45 2,2 C 62 % 1011,0 hPa 0,0 l/m 1,8 km/h (1 Bft) O-NO 68 0 min 0,000 mm 1,0 UV-I 89 W/m -4,3 C 2,2 C 4,0 km/h (1 Bft) 0,00 %
19.01.2015 15:00 2,1 C 67 % 1010,8 hPa 0,0 l/m 1,8 km/h (1 Bft) N 0 0 min 0,000 mm 1,0 UV-I 75 W/m -3,4 C 2,1 C 4,0 km/h (1 Bft) 0,00 %
19.01.2015 15:15 2,1 C 67 % 1010,9 hPa 0,0 l/m 0,0 km/h (0 Bft) N 357 0 min 0,000 mm 1,0 UV-I 72 W/m -3,4 C 2,1 C 0,0 km/h (0 Bft) 0,00 %
19.01.2015 15:30 2,0 C 66 % 1011,0 hPa 0,0 l/m 0,0 km/h (0 Bft) S 185 0 min 0,000 mm 0,0 UV-I 53 W/m -3,7 C 2,0 C 0,0 km/h (0 Bft) 0,00 %
19.01.2015 15:45 2,1 C 65 % 1010,9 hPa 0,0 l/m 0,4 km/h (0 Bft) S 173 0 min 0,000 mm 0,0 UV-I 41 W/m -3,8 C 2,1 C 4,0 km/h (1 Bft) 0,00 %
19.01.2015 16:00 1,8 C 66 % 1011,0 hPa 0,0 l/m 0,4 km/h (0 Bft) S 178 0 min 0,000 mm 0,0 UV-I 24 W/m -3,9 C 1,8 C 4,0 km/h (1 Bft) 0,00 %
19.01.2015 16:15 1,6 C 68 % 1011,1 hPa 0,0 l/m 0,0 km/h (0 Bft) SO 133 0 min 0,000 mm 0,0 UV-I 9 W/m -3,7 C 1,6 C 0,0 km/h (0 Bft) 0,00 %
19.01.2015 16:30 1,3 C 68 % 1011,2 hPa 0,0 l/m 0,0 km/h (0 Bft) S-SW 208 0 min 0,000 mm 0,0 UV-I 0 W/m -3,9 C 1,3 C 0,0 km/h (0 Bft) 0,00 %
19.01.2015 16:45 0,9 C 69 % 1011,1 hPa 0,0 l/m 0,0 km/h (0 Bft) S 182 0 min 0,000 mm 0,0 UV-I 0 W/m -4,1 C 0,9 C 0,0 km/h (0 Bft) 0,00 %
19.01.2015 17:00 0,7 C 69 % 1011,5 hPa 0,0 l/m 0,0 km/h (0 Bft) S 174 0 min 0,000 mm 0,0 UV-I 0 W/m -4,3 C 0,7 C 0,0 km/h (0 Bft) 0,00 %
19.01.2015 17:15 0,7 C 69 % 1011,5 hPa 0,0 l/m 0,0 km/h (0 Bft) S-SW 210 0 min 0,000 mm 0,0 UV-I 0 W/m -4,3 C 0,7 C 0,0 km/h (0 Bft) 0,00 %
19.01.2015 17:30 0,5 C 69 % 1011,5 hPa 0,0 l/m 0,0 km/h (0 Bft) S 186 0 min 0,000 mm 0,0 UV-I 0 W/m -4,5 C 0,5 C 0,0 km/h (0 Bft) 0,00 %
19.01.2015 17:45 0,4 C 70 % 1011,4 hPa 0,0 l/m 0,0 km/h (0 Bft) S-SW 208 0 min 0,000 mm 0,0 UV-I 0 W/m -4,4 C 0,4 C 0,0 km/h (0 Bft) 0,00 %
19.01.2015 18:00 0,5 C 69 % 1011,2 hPa 0,0 l/m 0,0 km/h (0 Bft) S 183 0 min 0,000 mm 0,0 UV-I 0 W/m -4,5 C 0,5 C 0,0 km/h (0 Bft) 0,00 %
19.01.2015 18:15 0,2 C 71 % 1011,3 hPa 0,0 l/m 0,0 km/h (0 Bft) S-SW 199 0 min 0,000 mm 0,0 UV-I 0 W/m -4,4 C 0,2 C 0,0 km/h (0 Bft) 0,00 %
19.01.2015 18:30 0,1 C 73 % 1011,4 hPa 0,0 l/m 0,0 km/h (0 Bft) S 187 0 min 0,000 mm 0,0 UV-I 0 W/m -4,2 C 0,1 C 0,0 km/h (0 Bft) 0,00 %
19.01.2015 18:45 0,1 C 72 % 1011,2 hPa 0,0 l/m 0,4 km/h (0 Bft) SO 135 0 min 0,000 mm 0,0 UV-I 0 W/m -4,3 C 0,1 C 4,0 km/h (1 Bft) 0,00 %
19.01.2015 19:00 -0,1 C 73 % 1011,2 hPa 0,0 l/m 0,0 km/h (0 Bft) S-SW 195 0 min 0,000 mm 0,0 UV-I 0 W/m -4,3 C -0,1 C 0,0 km/h (0 Bft) 0,00 %
19.01.2015 19:15 -0,3 C 74 % 1011,3 hPa 0,0 l/m 0,0 km/h (0 Bft) S-SW 207 0 min 0,000 mm 0,0 UV-I 0 W/m -4,4 C -0,3 C 0,0 km/h (0 Bft) 0,00 %
19.01.2015 19:30 -0,4 C 75 % 1011,4 hPa 0,0 l/m 0,0 km/h (0 Bft) S 175 0 min 0,000 mm 0,0 UV-I 0 W/m -4,3 C -0,4 C 0,0 km/h (0 Bft) 0,00 %
19.01.2015 19:45 -0,5 C 76 % 1011,3 hPa 0,0 l/m 0,0 km/h (0 Bft) S-SW 194 0 min 0,000 mm 0,0 UV-I 0 W/m -4,2 C -0,5 C 0,0 km/h (0 Bft) 0,00 %
19.01.2015 20:00 -0,5 C 78 % 1011,2 hPa 0,0 l/m 0,0 km/h (0 Bft) S 173 0 min 0,000 mm 0,0 UV-I 0 W/m -3,9 C -0,5 C 0,0 km/h (0 Bft) 0,00 %
19.01.2015 20:15 -0,5 C 76 % 1011,2 hPa 0,0 l/m 0,4 km/h (0 Bft) O-NO 72 0 min 0,000 mm 0,0 UV-I 0 W/m -4,2 C -0,5 C 4,0 km/h (1 Bft) 0,00 %
19.01.2015 20:30 -0,4 C 76 % 1011,3 hPa 0,0 l/m 0,0 km/h (0 Bft) S 172 0 min 0,000 mm 0,0 UV-I 0 W/m -4,1 C -0,4 C 0,0 km/h (0 Bft) 0,00 %
19.01.2015 20:45 -0,4 C 75 % 1011,3 hPa 0,0 l/m 0,0 km/h (0 Bft) O 94 0 min 0,000 mm 0,0 UV-I 0 W/m -4,3 C -0,4 C 0,0 km/h (0 Bft) 0,00 %
19.01.2015 21:00 -0,4 C 76 % 1011,0 hPa 0,0 l/m 0,0 km/h (0 Bft) SW 226 0 min 0,000 mm 0,0 UV-I 0 W/m -4,1 C -0,4 C 0,0 km/h (0 Bft) 0,00 %
19.01.2015 21:15 -0,5 C 76 % 1010,8 hPa 0,0 l/m 0,0 km/h (0 Bft) O-NO 57 0 min 0,000 mm 0,0 UV-I 0 W/m -4,2 C -0,5 C 0,0 km/h (0 Bft) 0,00 %
19.01.2015 21:30 -0,4 C 76 % 1010,8 hPa 0,0 l/m 4,0 km/h (1 Bft) O 100 0 min 0,000 mm 0,0 UV-I 0 W/m -4,1 C -0,4 C 7,9 km/h (2 Bft) 0,00 %
19.01.2015 21:45 -0,4 C 75 % 1010,5 hPa 0,0 l/m 0,7 km/h (0 Bft) SO 137 0 min 0,000 mm 0,0 UV-I 0 W/m -4,3 C -0,4 C 4,0 km/h (1 Bft) 0,00 %
19.01.2015 22:00 -0,4 C 76 % 1010,5 hPa 0,0 l/m 0,4 km/h (0 Bft) O 88 0 min 0,000 mm 0,0 UV-I 0 W/m -4,1 C -0,4 C 4,0 km/h (1 Bft) 0,00 %
19.01.2015 22:15 -0,5 C 77 % 1010,4 hPa 0,0 l/m 0,0 km/h (0 Bft) S-SO 154 0 min 0,000 mm 0,0 UV-I 0 W/m -4,0 C -0,5 C 0,0 km/h (0 Bft) 0,00 %
19.01.2015 22:30 -0,5 C 76 % 1010,4 hPa 0,0 l/m 0,0 km/h (0 Bft) N-NW 334 0 min 0,000 mm 0,0 UV-I 0 W/m -4,2 C -0,5 C 0,0 km/h (0 Bft) 0,00 %
19.01.2015 22:45 -0,6 C 77 % 1010,6 hPa 0,0 l/m 0,0 km/h (0 Bft) O-NO 61 0 min 0,000 mm 0,0 UV-I 0 W/m -4,1 C -0,6 C 0,0 km/h (0 Bft) 0,00 %
19.01.2015 23:00 -1,1 C 79 % 1010,6 hPa 0,0 l/m 0,0 km/h (0 Bft) O-SO 114 0 min 0,000 mm 0,0 UV-I 0 W/m -4,3 C -1,1 C 0,0 km/h (0 Bft) 0,00 %
19.01.2015 23:15 -1,2 C 79 % 1010,5 hPa 0,0 l/m 0,0 km/h (0 Bft) N-NO 31 0 min 0,000 mm 0,0 UV-I 0 W/m -4,4 C -1,2 C 0,0 km/h (0 Bft) 0,00 %
19.01.2015 23:30 -1,1 C 80 % 1010,2 hPa 0,0 l/m 0,4 km/h (0 Bft) N 7 0 min 0,000 mm 0,0 UV-I 0 W/m -4,1 C -1,1 C 4,0 km/h (1 Bft) 0,00 %
19.01.2015 23:45 -1,1 C 80 % 1010,3 hPa 0,0 l/m 1,4 km/h (1 Bft) NO 56 0 min 0,000 mm 0,0 UV-I 0 W/m -4,1 C -1,1 C 4,0 km/h (1 Bft) 0,00 %
_ Min-Zeit 23:15 14:45 23:30 - 00:00 - - - - - - 17:30 23:15 00:00 00:00
Minimum _ -1,2 C 62 % 1010,2 hPa - 0,0 km/h (0 Bft) - - - - - - -4,5 C -1,2 C 0,0 km/h (0 Bft) 0,00 %
_ Max-Zeit 12:30 00:00 00:00 00:00 04:15 - - 12:15 00:00 12:00 12:30 00:00 12:30 04:15 00:00
Maximum _ 2,3 C 81 % 1013,8 hPa 0,0 l/m 8,3 km/h
O-SO (2 Bft)
- - 15 min 0,000 mm 2,0 UV-I 215 W/m -1,6 C 2,3 C 11,9 km/h
O-SO (2 Bft)
0,00 %
Durchschnitt _ 0,9 C 76 % 1012,0 hPa #0,0 l/m 1,0 km/h (0 Bft) O-SO - #1:30 h #0,000 mm 1,1 UV-I 97 W/m -2,9 C 0,8 C 2,6 km/h (1 Bft) 0,00 %